QPF
0.00 0.00 0.00 0.00 0.00 0.00 0.00 0.00 0.00 0.00 0.00 0.00 0.00 0.00 0.00 0.00 0.00 0.00 0.00 0.00 0.03 0.12 0.09 0.05 0.03 0.01 0.00
0.00 0.00 0.00 0.00 0.00 0.00 0.00 0.00 0.00 0.00 0.00 0.00 0.00 0.00 0.00 0.00 0.00 0.00 0.00 0.00 0.01 0.12 0.18 0.10 0.05 0.02 0.00
0.00 0.00 0.00 0.00 0.00 0.00 0.00 0.00 0.00 0.00 0.00 0.00 0.00 0.00 0.00 0.00 0.00 0.00 0.00 0.00 0.00 0.06 0.14 0.09 0.05 0.01 0.00
0.00 0.00 0.00 0.00 0.00 0.00 0.00 0.00 0.00 0.00 0.00 0.00 0.00 0.00 0.00 0.00 0.00 0.00 0.00 0.00 0.00 0.02 0.10 0.14 0.11 0.04 0.01
0.00 0.00 0.00 0.00 0.00 0.00 0.00 0.00 0.00 0.00 0.00 0.00 0.00 0.00 0.00 0.00 0.00 0.00 0.00 0.00 0.00 0.01 0.06 0.08 0.08 0.05 0.02
0.01 0.00 0.00 0.00 0.00 0.00 0.00 0.00 0.00 0.00 0.00 0.00 0.00 0.00 0.00 0.00 0.00 0.00 0.00 0.00 0.00 0.01 0.05 0.12 0.11 0.05 0.02
0.03 0.01 0.01 0.00 0.00 0.00 0.00 0.00 0.00 0.00 0.00 0.00 0.00 0.00 0.00 0.00 0.00 0.00 0.00 0.00 0.00 0.00 0.05 0.13 0.19 0.13 0.08
0.00 0.00 0.00 0.00 0.00 0.00 0.00 0.00 0.00 0.00 0.00 0.00 0.00 0.00 0.00 0.00 0.00 0.00 0.00 0.00 0.00 0.00 0.02 0.11 0.18 0.15 0.12
0.00 0.00 0.00 0.00 0.00 0.01 0.01 0.01 0.00 0.00 0.00 0.00 0.00 0.00 0.00 0.00 0.00 0.00 0.00 0.00 0.00 0.00 0.02 0.06 0.15 0.17 0.15
0.00 0.00 0.00 0.00 0.00 0.03 0.06 0.05 0.01 0.00 0.00 0.00 0.00 0.00 0.00 0.00 0.00 0.00 0.00 0.00 0.00 0.00 0.01 0.04 0.13 0.18 0.20
0.01 0.00 0.00 0.00 0.00 0.00 0.01 0.03 0.03 0.02 0.00 0.00 0.00 0.00 0.00 0.00 0.00 0.00 0.00 0.00 0.00 0.00 0.00 0.02 0.12 0.20 0.13
0.03 0.02 0.00 0.00 0.00 0.00 0.00 0.00 0.00 0.00 0.00 0.01 0.01 0.01 0.00 0.00 0.00 0.00 0.00 0.00 0.00 0.00 0.00 0.01 0.05 0.19 0.13
0.01 0.01 0.01 0.01 0.01 0.00 0.00 0.00 0.00 0.00 0.00 0.00 0.00 0.01 0.01 0.00 0.00 0.00 0.00 0.00 0.00 0.00 0.00 0.00 0.03 0.09 0.16
0.01 0.01 0.01 0.01 0.01 0.00 0.00 0.00 0.00 0.00 0.00 0.00 0.00 0.00 0.00 0.00 0.00 0.00 0.00 0.00 0.00 0.00 0.00 0.01 0.03 0.07 0.11
0.00 0.01 0.01 0.01 0.00 0.00 0.00 0.01 0.01 0.00 0.00 0.00 0.00 0.00 0.00 0.00 0.00 0.00 0.00 0.00 0.00 0.00 0.00 0.00 0.02 0.06 0.10
0.01 0.01 0.01 0.01 0.01 0.01 0.01 0.01 0.01 0.00 0.00 0.00 0.00 0.01 0.01 0.00 0.00 0.00 0.00 0.00 0.00 0.00 0.00 0.01 0.01 0.05 0.11
0.01 0.01 0.01 0.01 0.01 0.02 0.02 0.02 0.01 0.00 0.00 0.01 0.01 0.01 0.01 0.01 0.00 0.00 0.00 0.00 0.00 0.00 0.00 0.01 0.01 0.05 0.16
MSLP
1025.67 1025.37 1025.27 1025.24 1024.97 1024.54 1023.94 1023.44 1022.90 1022.52 1022.43 1021.88 1021.32 1021.07 1020.82 1020.42 1020.09 1019.42 1018.57 1018.02 1017.52 1016.76 1015.98 1016.38 1017.38 1017.82 1018.00
1025.76 1025.42 1025.12 1024.96 1024.84 1024.56 1023.98 1023.37 1022.74 1022.46 1022.42 1022.03 1021.58 1020.95 1020.68 1020.13 1019.61 1019.13 1018.99 1018.45 1017.74 1016.85 1016.09 1016.07 1016.94 1017.46 1017.78
1026.13 1025.64 1025.19 1024.93 1024.46 1024.12 1023.62 1023.13 1022.67 1022.24 1021.98 1021.65 1021.41 1021.33 1020.97 1020.34 1019.76 1019.19 1018.76 1017.97 1017.50 1017.30 1016.81 1016.03 1016.48 1017.00 1017.42
1026.06 1025.59 1025.07 1024.52 1024.50 1024.06 1023.08 1022.75 1022.50 1022.21 1021.65 1021.38 1021.30 1020.98 1020.64 1020.31 1019.96 1019.54 1019.03 1018.87 1018.38 1017.59 1016.81 1016.06 1016.32 1016.67 1017.18
1025.72 1025.43 1024.92 1024.51 1023.98 1023.74 1023.39 1022.74 1022.22 1021.83 1021.64 1021.18 1020.79 1020.56 1020.18 1019.86 1019.53 1019.32 1018.94 1018.32 1017.91 1017.31 1016.68 1015.94 1015.80 1016.45 1016.96
1025.25 1024.89 1024.74 1024.39 1024.07 1023.64 1023.36 1023.04 1022.26 1021.45 1021.71 1021.27 1020.99 1020.37 1020.11 1019.70 1019.37 1019.18 1018.81 1018.17 1017.40 1017.24 1016.59 1015.99 1015.52 1016.06 1016.54
1024.79 1024.63 1024.37 1024.07 1023.87 1023.56 1023.46 1023.05 1022.66 1022.24 1022.10 1021.39 1021.13 1020.30 1019.88 1019.44 1019.28 1018.91 1018.53 1017.86 1017.04 1016.84 1016.66 1015.98 1015.54 1015.86 1016.47
1024.28 1024.04 1023.81 1023.71 1023.77 1023.65 1023.43 1023.05 1022.59 1022.46 1022.18 1021.37 1021.09 1020.13 1019.62 1019.13 1018.81 1018.45 1018.16 1017.64 1017.40 1016.81 1016.36 1015.93 1015.74 1015.63 1016.32
1023.66 1023.42 1023.17 1022.95 1022.97 1022.85 1022.57 1022.54 1021.77 1021.51 1021.42 1021.18 1020.87 1020.27 1019.57 1018.72 1018.18 1018.20 1017.91 1017.43 1017.30 1017.08 1016.51 1016.11 1015.76 1015.71 1016.24
1022.44 1022.27 1022.15 1022.01 1021.92 1021.74 1021.87 1021.48 1021.22 1020.75 1020.94 1020.97 1020.61 1020.20 1019.11 1018.20 1018.13 1018.26 1017.86 1017.37 1017.06 1016.87 1016.33 1016.09 1015.48 1015.59 1016.00
1021.57 1021.35 1021.23 1021.13 1021.05 1020.89 1020.87 1020.86 1020.88 1020.43 1020.30 1020.47 1020.43 1020.23 1019.86 1019.07 1018.47 1018.37 1017.98 1017.60 1017.25 1016.83 1016.49 1016.16 1015.62 1015.15 1015.47
1020.98 1020.68 1020.52 1020.17 1019.99 1020.03 1020.11 1020.14 1020.09 1020.01 1020.10 1020.32 1020.23 1020.09 1019.84 1019.44 1018.96 1018.47 1018.34 1017.99 1017.66 1017.03 1016.72 1016.23 1015.54 1015.01 1014.83
1019.82 1019.57 1019.43 1019.30 1019.30 1019.34 1019.48 1019.54 1019.60 1019.67 1019.60 1019.68 1019.75 1019.76 1019.77 1019.31 1018.86 1018.90 1018.69 1017.91 1017.71 1017.26 1017.03 1016.69 1016.62 1016.00 1014.86
1019.14 1018.90 1018.81 1018.74 1018.66 1018.69 1018.81 1019.02 1019.06 1019.04 1019.05 1019.17 1019.19 1019.32 1019.25 1019.06 1018.92 1018.63 1018.54 1018.11 1017.47 1017.48 1017.17 1016.91 1016.40 1015.96 1015.00
1018.70 1018.47 1018.19 1018.00 1017.99 1018.28 1018.32 1018.34 1018.28 1018.30 1018.35 1018.48 1018.67 1018.79 1018.78 1018.74 1018.35 1018.13 1018.10 1017.78 1017.49 1017.44 1017.23 1016.69 1016.30 1015.85 1015.39
1018.31 1018.08 1017.81 1017.64 1017.57 1017.66 1017.84 1017.83 1017.70 1017.54 1017.62 1017.79 1017.84 1018.15 1018.23 1018.01 1018.02 1017.59 1017.46 1017.27 1017.16 1017.25 1017.23 1016.89 1015.97 1015.54 1014.97
1017.89 1017.58 1017.32 1017.11 1017.03 1016.95 1016.94 1016.83 1016.73 1016.75 1016.88 1017.00 1017.11 1017.09 1016.97 1016.51 1016.49 1016.72 1016.80 1016.60 1016.55 1016.57 1016.70 1016.68 1016.04 1015.41 1015.10
Thickness
5432 5435 5437 5443 5451 5458 5468 5477 5486 5496 5503 5512 5521 5528 5535 5543 5549 5559 5568 5573 5579 5585 5589 5588 5584 5586 5590
5406 5413 5420 5420 5429 5439 5448 5458 5469 5477 5485 5494 5504 5516 5524 5534 5543 5552 5556 5564 5573 5581 5585 5587 5582 5582 5585
5377 5383 5392 5399 5405 5415 5427 5439 5449 5459 5469 5480 5488 5496 5506 5518 5529 5539 5549 5560 5567 5568 5575 5580 5580 5579 5583
5351 5358 5365 5373 5381 5387 5402 5415 5426 5436 5450 5462 5472 5482 5491 5503 5513 5523 5533 5538 5546 5557 5569 5577 5574 5576 5578
5326 5332 5342 5346 5354 5364 5374 5384 5400 5412 5425 5439 5454 5466 5478 5488 5500 5510 5522 5533 5543 5552 5564 5572 5574 5574 5572
5306 5312 5316 5323 5328 5336 5346 5358 5371 5388 5396 5414 5427 5444 5458 5472 5484 5496 5509 5523 5535 5542 5553 5563 5570 5570 5570
5289 5291 5294 5299 5305 5313 5316 5330 5344 5352 5365 5385 5397 5419 5435 5453 5466 5480 5495 5510 5525 5534 5542 5555 5562 5564 5564
5268 5271 5273 5276 5278 5284 5292 5301 5317 5329 5334 5357 5370 5393 5410 5431 5449 5465 5480 5496 5508 5521 5532 5545 5552 5557 5559
5250 5253 5255 5257 5261 5266 5273 5279 5295 5308 5316 5330 5349 5362 5384 5406 5427 5446 5462 5480 5493 5505 5518 5530 5541 5548 5549
5245 5245 5245 5247 5249 5252 5256 5263 5272 5284 5292 5306 5322 5337 5362 5383 5402 5419 5439 5459 5477 5492 5506 5518 5532 5536 5540
5236 5237 5237 5238 5239 5242 5244 5247 5250 5262 5271 5281 5292 5311 5328 5352 5374 5392 5413 5435 5455 5474 5488 5502 5518 5529 5534
5224 5225 5226 5229 5232 5233 5235 5237 5240 5247 5251 5258 5271 5286 5304 5325 5345 5365 5385 5408 5429 5452 5470 5486 5504 5517 5525
5221 5222 5221 5221 5221 5223 5225 5227 5229 5233 5237 5243 5253 5261 5278 5301 5321 5336 5357 5385 5407 5430 5450 5466 5480 5496 5512
5214 5214 5213 5213 5214 5214 5215 5217 5220 5223 5226 5231 5238 5245 5260 5279 5297 5317 5334 5362 5387 5407 5427 5446 5465 5481 5499
5204 5204 5205 5206 5207 5204 5205 5206 5211 5215 5218 5221 5225 5232 5244 5259 5282 5302 5317 5343 5365 5386 5407 5429 5449 5467 5482
5196 5195 5196 5196 5197 5196 5194 5196 5201 5207 5211 5213 5218 5222 5232 5249 5264 5284 5302 5321 5345 5364 5387 5408 5434 5453 5470
5186 5188 5188 5189 5189 5189 5189 5191 5196 5200 5203 5206 5211 5219 5229 5245 5255 5268 5287 5304 5328 5352 5371 5390 5415 5436 5452